Weather observations for the past three days for
Ciudad Juarez International
Metric (Imperial)
Date Time (cdt) Wind (kph) Vis. (km) Weather Sky Cond. Temperature (ºC) Relative Humidity Wind Chill (°C) Heat Index (°C) Pressure Precipitation (cm)
Air Dwpt 6 hour altimeter (cm) sea level (mb) 1 hr 3 hr 6 hr
Max. Min.
04 07:11 SW 15 16.09 Overcast SCT035 OVC080 21 17 78% 76.48 0.0
04 06:40 SW 11 12.87 Light Rain SCT035 OVC070 21 18 83% 76.48 1006.1 33.07
03 21:40 SW 11 16.09 A Few Clouds FEW050 FEW100 31 12 31% 30 76.25 1001.7
03 20:40 SW 13 16.09 A Few Clouds FEW050 FEW100 32 11 27% 31 76.17 0.0
03 19:41 SW 13 16.09 A Few Clouds FEW050 FEW100 34 12 26% 33 76.17 0.0
03 18:40 SW 7 16.09 A Few Clouds FEW050 FEW100 34 12 26% 33 76.15 1001.5
03 17:40 SW 19 16.09 A Few Clouds FEW050 FEW200 35 12 25% 34 76.17 0.0
03 16:40 W 19 16.09 A Few Clouds FEW050 FEW200 36 12 23% 35 76.2 0.0
03 15:40 SW 11 16.09 Partly Cloudy FEW050 SCT200 35 12 25% 34 76.28 1002.8
03 14:40 NW 13 16.09 Mostly Cloudy FEW090 SCT130 BKN200 34 13 28% 33 76.35 0.0
03 13:40 W 11 16.09 Mostly Cloudy FEW090 SCT130 BKN200 34 13 28% 33 76.43 0.0
03 12:40 W 11 16.09 Mostly Cloudy FEW090 SCT130 BKN200 32 13 31% 31 76.5 1005.6
03 11:40 W 13 16.09 Mostly Cloudy FEW090 BKN130 BKN200 31 13 33% 30 76.53 0.0
03 10:40 SW 19 16.09 Mostly Cloudy FEW090 BKN130 BKN200 29 14 40% 29 76.53 0.0
03 09:40 W 7 16.09 Mostly Cloudy SCT080 BKN130 BKN200 28 14 42% 28 76.53 1006.1
03 08:40 W 15 16.09 Mostly Cloudy FEW080 SCT130 BKN200 27 13 42% 27 76.5 0.0
03 06:40 W 19 16.09 Partly Cloudy FEW090 SCT140 SCT250 25 13 47% 26 76.45 1004.9
02 22:40 W 11 16.09 Clear SKC 32 10 26% 30 76.35 0.0
02 21:56 W 6 16.09 Clear SKC 32 10 26% 30 76.3 1003.3
02 20:40 W 13 16.09 A Few Clouds FEW050 FEW100 33 10 24% 31 76.25 0.0
02 19:40 SW 9 16.09 Partly Cloudy SCT050 35 10 22% 33 76.23 0.0
02 18:40 SW 9 16.09 Partly Cloudy SCT050 36 9 19% 34 76.25 1002.3
02 17:40 W 15 16.09 Mostly Cloudy BKN050 36 9 19% 34 76.28 0.0
02 16:41 Calm 16.09 Mostly Cloudy BKN050 37 9 18% 35 76.33 0.0
02 15:40 SW 17 16.09 Partly Cloudy SCT050 36 10 20% 34 76.4 1004.5
02 14:40 S 7 16.09 A Few Clouds FEW050 FEW150 35 11 23% 33 76.48 0.0
02 13:40 W 9 16.09 A Few Clouds FEW050 FEW130 33 12 28% 32 76.56 0.0
02 11:40 W 15 16.09 Partly Cloudy FEW100 SCT150 31 13 33% 30 76.63 0.0
02 10:40 W 24 16.09 Partly Cloudy SCT110 SCT170 29 13 37% 28 76.63 0.0
02 09:40 SW 20 16.09 Partly Cloudy FEW090 SCT170 28 13 40% 28 76.63 1007.9
02 08:40 SW 9 16.09 A Few Clouds FEW090 FEW160 25 13 47% 26 76.58 0.0
02 06:40 SW 15 16.09 Partly Cloudy FEW090 SCT250 24 14 54% 25 76.5 1006.4
01 22:40 W 7 16.09 Clear SKC 30 10 29% 29 76.45 0.0
01 21:40 SW 9 16.09 Clear SKC 31 10 27% 29 76.38 1005.9
01 20:40 W 7 16.09 A Few Clouds FEW080 32 10 26% 30 76.33 0.0
01 19:40 W 13 16.09 Clear SKC 33 11 26% 31 76.3 0.0
01 18:40 NW 9 16.09 Clear SKC 34 11 24% 32 76.33 1003.7
01 17:40 Calm 16.09 A Few Clouds FEW050 34 10 23% 32 76.33 0.0
01 16:40 W 7 16.09 A Few Clouds FEW050 FEW200 34 11 24% 32 76.35 0.0
01 15:40 Calm 16.09 A Few Clouds FEW050 FEW200 34 11 24% 32 76.45 1005.9
01 14:40 N 11 16.09 A Few Clouds FEW050 FEW200 33 11 26% 31 76.5 0.0
01 13:43 SE 6 16.09 A Few Clouds FEW090 FEW140 32 11 27% 31 76.58 0.0
01 12:41 NW 9 16.09 A Few Clouds FEW090 FEW140 31 11 29% 30 76.63 1008.2
01 11:40 N 13 16.09 Mostly Cloudy FEW090 BKN140 29 12 35% 28 76.63 0.0
01 10:40 NW 13 16.09 Mostly Cloudy SCT090 BKN140 26 12 42% 26 76.61 0.0
01 09:40 Calm 16.09 Mostly Cloudy SCT090 BKN140 BKN250 26 13 45% 26 76.61 1008.9
01 08:40 NW 9 16.09 Mostly Cloudy FEW090 BKN140 BKN200 25 13 47% 26 76.58 0.0
Date Time (cdt) Wind (kph) Vis. (km) Weather Sky Cond. Air Dwpt Max. Min. Relative Humidity Wind Chill (°C) Heat Index (°C) altimeter (cm) sea level (mb) 1 hr 3 hr 6 hr
6 hour
Temperature (ºC) Pressure Precipitation (cm)